This is the latest recevied weather packets stored in our database for station/object VK5FR. If no packets are shown the sender has not sent any weather packets the latest 10 day(s).
| Time | Temp. | Humidity | Pressure | Rain* | Wind** | Luminosity | Snow |
|---|---|---|---|---|---|---|---|
| 1778042809 | 16.11° C | 80% | 1019.8 hPa | 0 mm | - | - | - |
| 1778042506 | 16.67° C | 80% | 1020 hPa | 0 mm | - | - | - |
| 1778042203 | 16.67° C | 79% | 1019.9 hPa | 0 mm | - | - | - |
| 1778041901 | 16.11° C | 80% | 1019.8 hPa | 0 mm | - | - | - |
| 1778041600 | 16.11° C | 83% | 1019.9 hPa | 0 mm | - | - | - |
| 1778041298 | 15.56° C | 85% | 1019.7 hPa | 0 mm | - | - | - |
| 1778040996 | 15.56° C | 86% | 1020 hPa | 0 mm | - | - | - |
| 1778040692 | 15.56° C | 88% | 1019.9 hPa | 0 mm | - | - | - |
| 1778040394 | 15.56° C | 88% | 1020 hPa | 0 mm | - | - | - |
| 1778040087 | 15.56° C | 88% | 1019.8 hPa | 1.78 mm | - | - | - |
| 1778039784 | 15.56° C | 87% | 1020 hPa | 1.78 mm | - | - | - |
| 1778039480 | 16.11° C | 85% | 1020 hPa | 0 mm | - | - | - |
| 1778039178 | 15.56° C | 86% | 1019.8 hPa | 0 mm | - | - | - |
| 1778038875 | 15.56° C | 88% | 1019.9 hPa | 0 mm | - | - | - |
| 1778038571 | 15.56° C | 88% | 1019.9 hPa | 0 mm | - | - | - |
| 1778038269 | 15.56° C | 89% | 1019.9 hPa | 0 mm | - | - | - |
| 1778037966 | 15.56° C | 90% | 1020.2 hPa | 0 mm | - | - | - |
| 1778037663 | 15.56° C | 90% | 1020.1 hPa | 0 mm | - | - | - |
| 1778037360 | 15° C | 91% | 1020.4 hPa | 0 mm | - | - | - |
| 1778037057 | 15° C | 91% | 1020.1 hPa | 0 mm | - | - | - |
| 1778036755 | 15° C | 91% | 1020.6 hPa | 0 mm | - | - | - |
| 1778036452 | 15° C | 91% | 1020.6 hPa | 0 mm | - | - | - |
| 1778036149 | 15° C | 90% | 1020.7 hPa | 0 mm | - | - | - |
| 1778035845 | 15° C | 90% | 1020.6 hPa | 0 mm | - | - | - |
| 1778035542 | 15° C | 90% | 1020.9 hPa | 0 mm | - | - | - |
* Rain latest hour (hover to see other rain measurements)
** Current wind speed in m/s (hover to see current wind gust speed)